Flight Track Log - Related Links

Times and Time Zones

All times are in EDT time to prevent confusion due to time zone crossing. See the SWA2966 flight status page for this flight to view local times or setup timezone preferences in your user account.

Time Position Orientation Groundspeed Altitude Reporting Facility
EDT Latitude Longitude Course Direction KTS MPH feet Rate Location/Type
Sun 03:25:24 PM 37.7500 -122.2833 288° West 200 230 2,300  Level Northern Cal TRACON
Sun 03:26:24 PM 37.7667 -122.3500 288° West 217 250 6,100 3,237 Climbing Northern Cal TRACON
Sun 03:26:40 PM 37.7681 -122.3581 282° West 210 242 6,400 3,000 Climbing Oakland Center
Sun 03:27:24 PM 37.7167 -122.4000 213° Southwest 271 312 9,100 3,462 Climbing Northern Cal TRACON
Sun 03:28:24 PM 37.6333 -122.4167 189° South 321 369 12,400 3,308 Climbing Northern Cal TRACON
Sun 03:28:42 PM 37.6006 -122.4136 176° South 322 371 13,400 3,150 Climbing Oakland Center
Sun 03:29:44 PM 37.5333 -122.3272 134° Southeast 354 407 16,600 2,780 Climbing Oakland Center
Sun 03:30:45 PM 37.4672 -122.2247 129° Southeast 376 433 19,100 2,585 Climbing Oakland Center
Sun 03:31:47 PM 37.3978 -122.1164 129° Southeast 395 455 21,900 2,732 Climbing Oakland Center
Sun 03:32:48 PM 37.3256 -122.0025 129° Southeast 414 476 24,700 2,439 Climbing Oakland Center
Sun 03:33:50 PM 37.2506 -121.8864 129° Southeast 427 491 26,900 1,756 Climbing Oakland Center
Sun 03:34:51 PM 37.1669 -121.7572 129° Southeast 434 499 28,300 1,854 Climbing Oakland Center
Sun 03:35:53 PM 37.0811 -121.6256 129° Southeast 443 510 30,700 2,244 Climbing Oakland Center
Sun 03:36:54 PM 37.0006 -121.5042 130° Southeast 452 520 32,900 2,164 Climbing Oakland Center
Sun 03:37:55 PM 36.9228 -121.3831 129° Southeast 449 517 35,100 1,902 Climbing Oakland Center
Sun 03:38:57 PM 36.8450 -121.2639 129° Southeast 442 509 36,800 927 Climbing Oakland Center
Sun 03:39:58 PM 36.7606 -121.1361 129° Southeast 444 511 37,000 537 Climbing Oakland Center
Sun 03:41:00 PM 36.6811 -121.0178 130° Southeast 445 512 37,900 829 Climbing Oakland Center
Sun 03:42:01 PM 36.6028 -120.8981 129° Southeast 444 511 38,700 537 Climbing Oakland Center
Sun 03:43:03 PM 36.5247 -120.7794 129° Southeast 444 511 39,000 146 Climbing Oakland Center
Sun 03:44:04 PM 36.4472 -120.6614 129° Southeast 443 510 39,000  Level Oakland Center
Sun 03:45:06 PM 36.3678 -120.5453 130° Southeast 440 506 39,000  Level Oakland Center
Sun 03:46:07 PM 36.2867 -120.4281 131° Southeast 449 517 39,000  Level Oakland Center
Sun 03:47:09 PM 36.2078 -120.3075 129° Southeast 452 520 39,000  Level Oakland Center
Sun 03:48:10 PM 36.1111 -120.1689 131° Southeast 442 509 39,000  Level Oakland Center
Sun 03:49:12 PM 36.0319 -120.0517 130° Southeast 443 510 39,000  Level Oakland Center
Sun 03:50:13 PM 35.9539 -119.9392 131° Southeast 432 497 39,000  Level Oakland Center
Sun 03:51:15 PM 35.8733 -119.8214 130° Southeast 443 510 39,000  Level Oakland Center
Sun 03:52:16 PM 35.7925 -119.7050 131° Southeast 445 512 39,000  Level Oakland Center
Sun 03:53:18 PM 35.7108 -119.5864 130° Southeast 450 518 39,000  Level Oakland Center
Sun 03:54:19 PM 35.6281 -119.4681 131° Southeast 453 521 39,000  Level Oakland Center
Sun 03:55:21 PM 35.5461 -119.3519 131° Southeast 450 518 39,000  Level Oakland Center
Sun 03:55:37 PM 35.5153 -119.3061 130° Southeast 448 516 39,000  Level Los Angeles Center
Sun 03:56:39 PM 35.4347 -119.1906 131° Southeast 446 513 39,000  Level Los Angeles Center
Sun 03:57:41 PM 35.3533 -119.0761 131° Southeast 445 512 39,000  Level Los Angeles Center
Sun 03:58:44 PM 35.2747 -118.9617 130° Southeast 442 509 39,000 -288 Level Los Angeles Center
Sun 03:59:46 PM 35.1939 -118.8472 131° Southeast 443 510 38,400 -1,306 Descending Los Angeles Center
Sun 04:00:48 PM 35.1122 -118.7361 132° Southeast 441 507 36,300 -2,806 Descending Los Angeles Center
Sun 04:01:50 PM 35.0172 -118.6011 131° Southeast 438 504 32,600 -3,097 Descending Los Angeles Center
Sun 04:02:52 PM 34.9350 -118.4883 132° Southeast 443 510 29,900 -2,419 Descending Los Angeles Center
Sun 04:03:54 PM 34.8639 -118.3864 130° Southeast 436 502 27,600 -2,274 Descending Los Angeles Center
Sun 04:04:56 PM 34.7878 -118.2822 132° Southeast 423 487 25,200 -1,887 Descending Los Angeles Center
Sun 04:05:58 PM 34.6986 -118.1578 131° Southeast 412 474 23,700 -1,210 Descending Los Angeles Center
Sun 04:07:00 PM 34.6244 -118.0544 131° Southeast 409 471 22,700 -1,152 Descending Los Angeles Center
Sun 04:08:03 PM 34.5722 -117.9356 118° Southeast 402 463 21,300 -1,632 Descending Los Angeles Center
Sun 04:09:05 PM 34.5203 -117.8233 119° Southeast 388 447 19,300 -2,081 Descending Los Angeles Center
Sun 04:10:07 PM 34.4697 -117.7142 119° Southeast 376 433 17,000 -2,274 Descending Los Angeles Center
Sun 04:11:09 PM 34.4117 -117.5878 119° Southeast 360 414 14,600 -1,645 Descending Los Angeles Center
Sun 04:12:11 PM 34.3708 -117.4956 118° Southeast 342 394 13,600 -871 Descending Los Angeles Center
Sun 04:13:13 PM 34.3292 -117.4092 120° Southeast 305 351 12,800 -2,032 Descending Los Angeles Center
Sun 04:14:15 PM 34.2464 -117.3856 167° South 271 312 9,400 -2,903 Descending Los Angeles Center
Sun 04:15:17 PM 34.1722 -117.4178 200° South 279 321 6,800 -2,083 Descending Los Angeles Center
Sun 04:16:16 PM 34.1000 -117.4333 190° South 240 276 5,200 -1,210 Descending Southern California TRACON
Sun 04:17:16 PM 34.0500 -117.4500 195° South 174 200 4,400 -1,300 Descending Southern California TRACON
Sun 04:18:16 PM 34.0500 -117.5000 270° West 156 180 2,600 -1,438 Descending Southern California TRACON
Sun 04:19:17 PM 34.0500 -117.5500 270° West 137 158 1,500 -1,082 Descending Southern California TRACON
Sun 04:22:00 PM 34.0500 -117.6000 270° West  Level FlightAware Approximate

Login

Don't have an account? Register now (free) for customized features, flight alerts, and more!